Creek Data

    Home     View Charts     View Raw Data     Messages

ID Distance Battery Voltage Battery Current Internal Temp Internal Humidity External Temp Solar Input rssi snr Time Stamp Record
32205 13.8 3.71 -5 45 37 46 0 -93 6 02/12/2025 10:15 PM 13874
32204 13.8 3.73 -5 45 37 46 0 -90 7 02/12/2025 10:00 PM 13873
32203 13.8 3.69 -5 45 37 46 0 -89 8 02/12/2025 09:45 PM 13872
32202 13.8 3.84 -5 45 37 46 0.1 -88 8 02/12/2025 09:30 PM 13871
32201 13.8 3.69 -5 45 37 45 0 -86 7 02/12/2025 09:15 PM 13870
32200 13.8 3.65 -5 45 37 45 0 -87 7 02/12/2025 09:00 PM 13869
32199 13.8 3.86 -5 45 37 46 0 -82 8 02/12/2025 08:45 PM 13868
32198 13.8 3.59 -5 45 37 47 0 -80 9 02/12/2025 08:30 PM 13867
32197 13.8 3.82 -5 45 37 46 0 -81 8 02/12/2025 08:15 PM 13866
32196 13.8 3.65 -5 45 38 46 0.1 -81 9 02/12/2025 08:00 PM 13865
32195 13.8 3.61 -5 45 38 46 0 -81 8 02/12/2025 07:45 PM 13864
32194 13.8 3.83 -5 45 38 45 0 -81 8 02/12/2025 07:30 PM 13863
32193 13.8 3.61 -5 45 38 46 0 -80 9 02/12/2025 07:15 PM 13862
32192 13.8 3.61 -5 45 39 45 0 -80 8 02/12/2025 07:00 PM 13861
32191 13.8 3.51 -5 46 39 46 0.1 -81 8 02/12/2025 06:45 PM 13860
32190 13.8 3.52 -5 47 39 48 0 -78 8 02/12/2025 06:30 PM 13859
32189 13.8 3.83 -5 48 39 48 0 -80 8 02/12/2025 06:15 PM 13858
32188 13.9 3.63 -5 48 39 48 0 -78 9 02/12/2025 06:00 PM 13857
32187 13.9 3.84 -5 49 39 49 0.8 -78 8 02/12/2025 05:45 PM 13856
32186 13.9 3.77 -10 51 39 49 2.9 -78 8 02/12/2025 05:30 PM 13855
32185 13.9 3.89 0 52 39 52 4.5 -78 8 02/12/2025 05:15 PM 13854
32184 13.9 4.02 10 54 39 53 4.5 -77 9 02/12/2025 04:45 PM 13852
32183 13.9 3.93 0 55 38 54 5.1 -78 7 02/12/2025 04:30 PM 13851
32182 13.9 3.80 0 56 39 53 5.1 -78 7 02/12/2025 04:15 PM 13850
32181 13.9 3.82 0 56 39 54 5.1 -78 8 02/12/2025 04:00 PM 13849